Regional Weather Roundup
Issued by NWS Charleston, WV

Home | Current Version | Previous Version | Text Only | Print | Product List | Glossary On
Versions: 1 2 3 4 5 6 7 8 9 10 11 12 13 14 15 16 17 18 19 20 21 22 23 24 25 26 27 28 29 30 31 32 33 34 35 36 37 38 39 40 41 42 43 44 45 46 47 48 49 50
000
ASUS41 KRLX 010110
RWRRLX
West Virginia Regional Weather Roundup
National Weather Service Charleston WV
900 PM EDT THU JUL 31 2014

Note: "fair" indicates few or no clouds below 12,000 feet with no
significant weather and/or obstructions to visibility.

WVZ003-010200-
Northern Panhandle of West Virginia

CITY           SKY/WX    TMP DP  RH WIND       PRES   REMARKS
WHEELING         N/A     71  61  70 S6        30.11R
$$

WVZ009-010200-
Northwest West Virginia

CITY           SKY/WX    TMP DP  RH WIND       PRES   REMARKS
PARKERSBURG      N/A     71  67  87 CALM      30.12S
$$

WVZ006-010200-
Western West Virginia

CITY           SKY/WX    TMP DP  RH WIND       PRES   REMARKS
HUNTINGTON       N/A     71  62  73 E3        30.08S
$$

WVZ015-010200-
West Central West Virginia

CITY           SKY/WX    TMP DP  RH WIND       PRES   REMARKS
CHARLESTON       N/A     72  65  78 CALM      30.09S
$$

WVZ031-010200-
North Central West Virginia

CITY           SKY/WX    TMP DP  RH WIND       PRES   REMARKS
CLARKSBURG       N/A     69  59  70 CALM      30.12S
MORGANTOWN       N/A     74  60  61 CALM      30.14R
$$

WVZ035-042-045-010200-
South Central West Virginia

CITY           SKY/WX    TMP DP  RH WIND       PRES   REMARKS
BECKLEY          N/A     69  58  67 SE12      30.19R
BLUEFIELD      MOCLDY    65  60  84 CALM      30.21S
LEWISBURG      CLOUDY    71  59  65 SW9G17    30.19R
$$

WVZ047-010200-
Northern Mountains of West Virginia

CITY           SKY/WX    TMP DP  RH WIND       PRES   REMARKS
ELKINS           N/A     64  58  80 CALM      30.17R
$$

WVZ052-010200-
Eastern Panhandle of West Virginia

CITY           SKY/WX    TMP DP  RH WIND       PRES   REMARKS
MARTINSBURG    CLOUDY    73  60  63 CALM      30.12R
PETERSBURG       N/A     69  59  69 NW5       30.13R
$$


USA.gov is the U.S. government's official web portal to all federal, state and local government web resources and services.